Location: Allen Fire Department Station 4
(33.1073°N, 96.6988°W)
Time: 11:10:17
(UTC+00:00)

Cosmos 1763 Rocket - Pass Details

Date: 03 December 2021
Orbit: 732 x 780 km, 74.0° (Epoch: 24 January)

Event Time Altitude Azimuth Distance (km) Brightness Sun altitude
Rises 23:36:37 0° 206° (SSW) 3,141 7.6 -4.1°
Reaches altitude 10° 23:38:59 10° 211° (SSW) 2,223 6.9 -4.5°
Maximum altitude 23:43:54 55° 289° (WNW) 879 4.2 -5.5°
Drops below altitude 10° 23:48:53 10° 7° (N) 2,248 5.6 -6.4°
Sets 23:51:18 0° 12° (NNE) 3,180 6.4 -6.9°
